EW8748 Weather Reports


time (UTC)temp
C
wind
direction
speed
KPH
gust
KPH
rain 1hr
cm
rain 24hr
cm
rain mn
cm
humidity
%
barometer
mb
20260503045020 8 250 8.0 12.9 0.00 0.00 0.00 82 1021.9
20260503044511 8 308 6.4 12.9 0.00 0.00 0.00 82 1021.9
20260503044020 8 282 6.4 11.3 0.00 0.00 0.00 82 1021.8
20260503042511 8 313 4.8 8.0 0.00 0.00 0.00 82 1021.8
20260503042019 8 289 4.8 11.3 0.00 0.00 0.00 82 1021.7
20260503041511 8 284 6.4 11.3 0.00 0.00 0.00 82 1021.7
20260503040511 8 297 4.8 12.9 0.00 0.00 0.00 82 1021.7
20260503035511 8 283 4.8 8.0 0.00 0.00 0.00 82 1021.7
20260503035019 8 276 4.8 8.0 0.00 0.00 0.00 82 1021.6
20260503034020 8 261 4.8 8.0 0.00 0.00 0.00 82 1021.5
20260503033018 8 309 3.2 8.0 0.00 0.00 0.00 82 1021.6
20260503030511 8 324 4.8 8.0 0.00 0.00 0.00 82 1021.8
20260503025511 8 329 6.4 9.7 0.00 0.00 0.00 83 1021.7
20260503024512 8 311 8.0 12.9 0.00 0.00 0.00 82 1021.8
20260503024018 8 359 8.0 12.9 0.00 0.00 0.00 82 1021.7
20260503023019 8 299 3.2 8.0 0.00 0.00 0.00 82 1021.7
20260503021511 8 321 8.0 9.7 0.00 0.00 0.00 82 1021.8
20260503021019 8 310 4.8 8.0 0.00 0.00 0.00 82 1021.8
20260503020511 8 285 3.2 8.0 0.00 0.00 0.00 81 1021.8
20260503020011 8 359 4.8 9.7 0.00 0.00 0.00 81 1021.9
20260503013510 8 313 8.0 12.9 0.00 0.00 0.00 80 1022.1
20260503013017 8 324 4.8 8.0 0.00 0.00 0.00 80 1022.1
20260503011511 9 337 4.8 8.0 0.00 0.00 0.00 79 1022.2
20260503010511 9 321 6.4 9.7 0.00 0.00 0.00 80 1022.3
20260503010011 8 359 6.4 9.7 0.00 0.00 0.00 80 1022.3
20260503005511 8 339 6.4 12.9 0.00 0.00 0.00 80 1022.3
20260503005018 8 337 3.2 9.7 0.00 0.00 0.00 80 1022.4
20260503004511 8 322 6.4 11.3 0.00 0.00 0.00 79 1022.4
20260503002511 9 324 4.8 8.0 0.00 0.00 0.00 78 1022.5
20260503002017 9 309 8.0 9.7 0.00 0.00 0.00 78 1022.6
20260502235515 9 316 8.0 9.7 0.00 0.00 0.00 78 1022.7
20260502235019 9 297 4.8 9.7 0.00 0.00 0.00 78 1022.7
20260502234514 8 319 4.8 8.0 0.00 0.00 0.00 78 1022.8
20260502230513 9 309 4.8 8.0 0.00 0.00 0.00 77 1023.1
20260502225513 9 318 6.4 9.7 0.00 0.00 0.00 77 1023.0
20260502225019 9 318 4.8 8.0 0.00 0.00 0.00 77 1023.0
20260502223020 9 308 4.8 8.0 0.00 0.00 0.00 77 1023.1
20260502222513 9 339 4.8 8.0 0.00 0.00 0.00 77 1023.1
20260502222021 9 334 6.4 9.7 0.00 0.00 0.00 76 1023.2
20260502221019 9 343 4.8 8.0 0.00 0.00 0.00 76 1023.0
20260502220014 10 337 3.2 4.8 0.00 0.00 0.00 75 1022.8
20260502215019 10 312 3.2 4.8 0.00 0.00 0.00 75 1022.9
20260502214513 10 335 4.8 8.0 0.00 0.00 0.00 75 1023.0
20260502214021 10 328 4.8 8.0 0.00 0.00 0.00 74 1022.8
20260502213020 10 326 4.8 8.0 0.00 0.00 0.00 73 1022.9
20260502212019 10 343 4.8 4.8 0.00 0.00 0.00 73 1022.9
20260502211020 10 345 1.6 3.2 0.00 0.00 0.00 73 1023.0
20260502205022 11 338 3.2 8.0 0.00 0.00 0.00 72 1023.0
20260502204513 11 302 4.8 8.0 0.00 0.00 0.00 72 1022.9
20260502204019 11 308 4.8 4.8 0.00 0.00 0.00 72 1023.0
20260502203020 11 292 4.8 4.8 0.00 0.00 0.00 71 1023.0
20260502201513 11 293 3.2 4.8 0.00 0.00 0.00 72 1023.0
20260502201019 11 337 3.2 8.0 0.00 0.00 0.00 72 1023.0
20260502200513 11 299 4.8 9.7 0.00 0.00 0.00 71 1022.8
20260502195513 11 297 3.2 4.8 0.00 0.00 0.00 71 1022.8
20260502194512 11 313 4.8 8.0 0.00 0.00 0.00 71 1022.7
20260502193019 11 305 4.8 9.7 0.00 0.00 0.00 70 1022.5
20260502192512 11 332 4.8 9.7 0.00 0.00 0.00 70 1022.5
20260502192019 11 331 3.2 4.8 0.00 0.00 0.00 70 1022.5
20260502191513 11 297 3.2 4.8 0.00 0.00 0.00 70 1022.4
20260502191019 11 322 3.2 4.8 0.00 0.00 0.00 71 1022.3
20260502190012 11 330 3.2 4.8 0.00 0.00 0.00 71 1022.1
20260502185020 11 331 4.8 8.0 0.00 0.00 0.00 71 1021.9
20260502181513 12 332 4.8 4.8 0.00 0.00 0.00 69 1021.4
20260502170513 13 224 9.7 16.1 0.00 0.00 0.00 64 1020.8
20260502164020 14 263 11.3 20.9 0.00 0.00 0.00 62 1020.6
20260502162512 14 320 8.0 19.3 0.00 0.00 0.00 60 1020.5
20260502162021 13 247 11.3 19.3 0.00 0.00 0.00 61 1020.5
20260502160512 14 232 9.7 25.7 0.00 0.00 0.00 60 1020.4
20260502151020 15 256 16.1 27.4 0.00 0.00 0.00 55 1020.0
20260502150512 15 18 9.7 16.1 0.00 0.00 0.00 50 1019.8
20260502130513 16 122 4.8 12.9 0.00 0.00 0.00 44 1020.2
20260502123019 17 108 8.0 20.9 0.00 0.00 0.00 45 1020.4
20260502122021 17 87 9.7 20.9 0.00 0.00 0.00 43 1020.4
20260502121512 17 77 8.0 19.3 0.00 0.00 0.00 44 1020.5
20260502114512 17 312 9.7 20.9 0.00 0.00 0.00 39 1020.5
20260502113020 17 107 11.3 20.9 0.00 0.00 0.00 38 1020.5
20260502112512 17 69 11.3 16.1 0.00 0.00 0.00 40 1020.5
20260502112020 16 87 11.3 19.3 0.00 0.00 0.00 40 1020.5
20260502111021 16 27 9.7 19.3 0.00 0.00 0.00 40 1020.6
20260502104019 16 359 12.9 24.1 0.00 0.00 0.00 39 1020.8
20260502103513 17 25 14.5 24.1 0.00 0.00 0.00 39 1020.7
20260502101512 16 4 14.5 19.3 0.00 0.00 0.00 41 1020.8
20260502091512 15 48 9.7 19.3 0.00 0.00 0.00 41 1020.7
20260502090512 14 35 8.0 16.1 0.00 0.00 0.00 42 1020.8
20260502071512 12 75 11.3 22.5 0.00 0.00 0.00 47 1020.6
20260502071019 12 52 9.7 16.1 0.00 0.00 0.00 49 1020.6
20260502070511 12 24 9.7 20.9 0.00 0.00 0.00 50 1020.5
20260502065019 12 60 14.5 27.4 0.00 0.00 0.00 50 1020.5
20260502064512 12 62 9.7 20.9 0.00 0.00 0.00 52 1020.5
20260502063511 12 48 9.7 19.3 0.00 0.00 0.00 53 1020.4
20260502063020 12 98 11.3 20.9 0.00 0.00 0.00 53 1020.4
20260502062514 12 58 11.3 22.5 0.00 0.00 0.00 54 1020.4
20260502062019 12 10 16.1 25.7 0.00 0.00 0.00 53 1020.3
20260502061019 12 44 8.0 20.9 0.00 0.00 0.00 57 1020.3
20260502060511 11 11 14.5 22.5 0.00 0.00 0.00 57 1020.3
20260502054511 11 13 9.7 16.1 0.00 0.00 0.00 60 1020.1
20260502054020 11 341 9.7 19.3 0.00 0.00 0.00 61 1020.1
20260502052019 11 349 6.4 9.7 0.00 0.00 0.00 65 1020.1
20260502051512 11 359 8.0 12.9 0.00 0.00 0.00 66 1020.1
20260502051020 10 354 8.0 16.1 0.00 0.00 0.00 68 1020.1